Weather History for McCook, NE

Change the Weather History Date:

Sunday, November 6, 2011

  Actual Average Record
Temperature  
Mean Temperature 42 °F 43 °F  
Max Temperature 55 °F 58 °F 84 °F (1980)
Min Temperature 28 °F 28 °F 5 °F (1959)
Degree Days  
Heating Degree Days 22    
Moisture  
Dew Point 24 °F    
Average Humidity 52    
Maximum Humidity 79    
Minimum Humidity 23    
Precipitation  
Precipitation 0.00 in 0.04 in 0.40 in (1953)
Month to date precipitation 0.10 0.25  
Year to date precipitation 19.02 21.19  
Sea Level Pressure  
Sea Level Pressure 29.86 in    
Wind  
Wind Speed 16 mph (WNW)    
Max Wind Speed 31 mph    
Max Gust Speed 45 mph    
Visibility 10 miles    
Events      
T = Trace of Precipitation, MM = Missing Value Source: NWS Daily Summary

Daily Weather History Graph

Daily Weather History Graph

Search for Another Location

Airport:

Trip Planner

Search our weather history database for the weather conditions in past years. The results will help you decide how hot, cold, wet, or windy it might be!

Date:

Astronomy

Nov. 06, 2011 Rise Set
Actual Time 7:17 AM CST 5:34 PM CST
Civil Twilight 6:48 AM CST 6:02 PM CST
Nautical Twilight 6:16 AM CST 6:34 PM CST
Astronomical Twilight 5:44 AM CST 7:06 PM CST
Moon 3:19 PM CST (11/6) 3:25 AM CST (11/6)
Length of Visible Light 11h 13m
Length of Day
10h 16m
Waxing Gibbous, 86% of the Moon is Illuminated
Nov 6
Waxing Gibbous
Nov 10
Full
Nov 18
Last Quarter
Nov 25
New
Dec 2
First Quarter

Hourly Weather History & Observations

Time (CST) Temp. Windchill Dew Point Humidity Pressure Visibility Wind Dir Wind Speed Gust Speed Precip Events Conditions
12:12 AM 50.0 °F - 39.2 °F 66% 29.46 in 10.0 mi WNW 31.1 mph 44.9 mph N/A   Overcast
12:41 AM 48.2 °F - 39.2 °F 71% 29.50 in 10.0 mi NW 31.1 mph 42.6 mph N/A   Overcast
12:53 AM 46.9 °F - 37.9 °F 71% 29.50 in 10.0 mi NW 31.1 mph 42.6 mph N/A   Mostly Cloudy
1:53 AM 43.0 °F 34.2 °F 35.1 °F 74% 29.62 in 10.0 mi WNW 20.7 mph 28.8 mph N/A   Clear
1:53 AM 39.9 °F 32.5 °F 33.1 °F 77% 29.65 in 10.0 mi WNW 12.7 mph - N/A   Partly Cloudy
2:53 AM 39.0 °F 30.6 °F 30.9 °F 73% 29.69 in 10.0 mi West 15.0 mph 23.0 mph N/A   Clear
3:53 AM 35.1 °F 27.9 °F 28.9 °F 78% 29.74 in 10.0 mi West 9.2 mph - N/A   Clear
4:53 AM 35.1 °F 27.4 °F 28.9 °F 78% 29.79 in 10.0 mi West 10.4 mph - N/A   Clear
5:53 AM 34.0 °F 27.2 °F 27.0 °F 75% 29.83 in 10.0 mi WSW 8.1 mph - N/A   Clear
6:53 AM 32.0 °F 24.8 °F 26.1 °F 79% 29.86 in 10.0 mi WSW 8.1 mph - N/A   Clear
7:53 AM 36.0 °F 29.0 °F 25.0 °F 64% 29.87 in 10.0 mi WNW 9.2 mph - N/A   Clear
8:53 AM 39.9 °F 34.5 °F 25.0 °F 55% 29.91 in 10.0 mi West 8.1 mph - N/A   Clear
9:53 AM 43.0 °F 39.5 °F 24.1 °F 47% 29.95 in 10.0 mi West 5.8 mph - N/A   Clear
10:53 AM 50.0 °F - 21.0 °F 32% 29.95 in 10.0 mi NW 11.5 mph - N/A   Clear
11:53 AM 51.1 °F - 18.0 °F 27% 29.96 in 10.0 mi NW 12.7 mph - N/A   Clear
12:53 PM 53.1 °F - 17.1 °F 24% 29.95 in 10.0 mi NW 13.8 mph - N/A   Clear
1:53 PM 53.1 °F - 17.1 °F 24% 29.94 in 10.0 mi North 9.2 mph 18.4 mph N/A   Clear
2:53 PM 54.0 °F - 17.1 °F 23% 29.94 in 10.0 mi NW 3.5 mph - N/A   Clear
3:53 PM 54.0 °F - 18.0 °F 24% 29.97 in 10.0 mi Calm Calm - N/A   Clear
4:53 PM 52.0 °F - 18.0 °F 26% 29.98 in 10.0 mi South 3.5 mph - N/A   Clear
5:53 PM 48.9 °F - 17.1 °F 28% 30.01 in 10.0 mi SSE 3.5 mph - N/A   Clear
6:53 PM 42.1 °F 38.4 °F 18.0 °F 38% 30.05 in 10.0 mi SSE 5.8 mph - N/A   Clear
7:53 PM 39.9 °F 35.8 °F 18.0 °F 41% 30.06 in 10.0 mi SSE 5.8 mph - N/A   Clear
8:53 PM 39.2 °F - 17.6 °F 42% 30.03 in 10.0 mi Calm Calm - N/A   Clear
9:53 PM 37.0 °F - 18.0 °F 46% 30.09 in 10.0 mi Calm Calm - N/A   Clear
10:53 PM 30.0 °F - 19.0 °F 64% 30.10 in 10.0 mi Calm Calm - N/A   Clear